[[{"header":{"parameterUnit":"m.s-1","parameterCategory":1,"la1":30.2992,"la2":30.254,"lo1":-89.0895,"lo2":-89.0443,"dy":0.0025,"dx":0.0025,"nx":19,"ny":19,"refTime":"2026-03-16T03:00:00:Z","depth":0,"parameterNumber":2,"parameterNumberName":"U-component_of_WINDS"},"data":[0,0,0,-0.1145,-0.1145,-0.1151,-0.1151,-0.1164,-0.1165,0,0,0,0,0,0,0,0,0,0,0,-0.1147,-0.1147,-0.1145,-0.1145,-0.1151,-0.1151,-0.1164,-0.1165,0,0,0,0,0,0,0,0,0,0,0,-0.1147,-0.1147,-0.1147,-0.1145,-0.1151,-0.1151,-0.1164,-0.1158,0,0,0,0,0,0,0,0,0,0,-0.1151,-0.1157,-0.1147,-0.1147,-0.1145,-0.1151,-0.1151,-0.1157,-0.1158,-0.1165,0,-0.1171,0,-0.1168,-0.1166,-0.1166,0,0,0,-0.1143,-0.1156,-0.1154,-0.1147,-0.1145,-0.1151,-0.1147,-0.1158,-0.1159,-0.1166,-0.1171,-0.1171,-0.1168,-0.1166,-0.1166,-0.121,-0.121,0,0,-0.1142,-0.115,-0.1154,-0.1155,-0.1154,-0.1147,-0.1148,-0.1158,-0.1165,-0.1171,-0.1172,-0.1168,-0.1166,-0.1166,-0.1209,-0.121,0,0,0,-0.1143,-0.115,-0.1148,-0.1155,-0.1155,-0.1148,-0.1148,-0.1164,-0.1163,-0.1172,-0.1168,-0.1166,-0.1166,-0.1209,-0.121,-0.1234,0,0,0,-0.1143,-0.1151,-0.1148,-0.1153,-0.1155,-0.116,-0.1154,-0.1162,-0.1163,-0.1168,-0.1166,-0.1167,-0.1209,-0.1209,-0.1232,-0.1244,0,0,0,-0.1145,-0.1151,-0.1153,-0.1153,-0.1156,-0.1159,-0.1158,-0.1162,-0.1161,-0.1166,-0.1167,-0.1208,-0.1209,-0.1231,-0.1242,-0.1258,0,0,0,-0.1151,-0.1175,-0.1153,-0.1179,-0.1156,-0.1174,-0.1158,-0.1171,-0.1178,-0.1166,-0.1209,-0.1209,-0.123,-0.1241,-0.1257,-0.1274,-0.1281,0,0,-0.1186,-0.1179,-0.1193,-0.1174,-0.1198,-0.1172,-0.12,-0.1199,-0.1192,-0.1204,-0.1205,-0.1233,-0.1242,-0.1258,-0.1319,-0.1325,0,0,0,-0.1207,-0.1218,-0.1222,-0.1229,-0.1228,-0.1228,-0.1221,-0.1221,-0.1231,-0.12,-0.1242,-0.1247,-0.1256,-0.1264,-0.1269,-0.1277,-0.1213,-0.1213,-0.1213,-0.127,-0.1259,-0.1281,-0.1271,-0.1277,-0.1269,-0.1274,-0.1272,-0.126,-0.127,-0.1274,-0.1312,-0.1322,-0.1325,-0.1333,-0.1281,-0.1281,-0.1281,-0.1281,-0.132,-0.1334,-0.1315,-0.1331,-0.1319,-0.1332,-0.1325,-0.1316,-0.1327,-0.1309,-0.1316,-0.1298,-0.1333,-0.1339,-0.1283,-0.1283,-0.1282,-0.1282,-0.1282,-0.1361,-0.1365,-0.1363,-0.137,-0.1377,-0.1365,-0.1376,-0.1365,-0.1354,-0.1362,-0.1365,-0.1364,-0.1363,-0.1364,-0.1364,-0.1364,-0.1364,-0.1364,-0.1364,-0.1404,-0.1401,-0.1411,-0.1411,-0.1413,-0.1414,-0.1405,-0.1407,-0.1406,-0.1397,-0.1397,-0.1385,-0.1337,-0.1326,-0.1366,-0.1366,-0.1366,-0.1365,-0.1365,-0.1462,-0.1447,-0.1463,-0.1465,-0.1463,-0.147,-0.1455,-0.1459,-0.1459,-0.1464,-0.1449,-0.1415,-0.1409,-0.1404,-0.1395,-0.1451,-0.1451,-0.1451,-0.1451,-0.1497,-0.1492,-0.1505,-0.1509,-0.1511,-0.1498,-0.1516,-0.1509,-0.1499,-0.1498,-0.1488,-0.1475,-0.1471,-0.1466,-0.1461,-0.1452,-0.1521,-0.1521,-0.1521,-0.1532,-0.1526,-0.1544,-0.1534,-0.1531,-0.1529,-0.1546,-0.1551,-0.1536,-0.1524,-0.1498,-0.1495,-0.1472,-0.1466,-0.1455,-0.1446,-0.143,0,0]},{"header":{"parameterUnit":"m.s-1","parameterCategory":1,"la1":30.2992,"la2":30.254,"lo1":-89.0895,"lo2":-89.0443,"dy":0.0025,"dx":0.0025,"nx":19,"ny":19,"refTime":"2026-03-16T03:00:00:Z","depth":0,"parameterNumber":3,"parameterNumberName":"V-component_of_WINDS"},"data":[0,0,0,-5.5692,-5.5694,-5.5775,-5.5775,-5.5889,-5.5891,0,0,0,0,0,0,0,0,0,0,0,-5.5677,-5.5678,-5.5692,-5.5694,-5.5775,-5.5775,-5.5889,-5.5891,0,0,0,0,0,0,0,0,0,0,0,-5.5676,-5.5678,-5.5679,-5.5695,-5.5775,-5.5775,-5.5889,-5.5824,0,0,0,0,0,0,0,0,0,0,-5.5743,-5.5738,-5.5677,-5.5679,-5.5695,-5.5775,-5.5775,-5.582,-5.5828,-5.5858,0,-5.5889,0,-5.5892,-5.5899,-5.59,0,0,0,-5.5687,-5.5732,-5.5746,-5.5679,-5.5696,-5.5775,-5.5737,-5.5824,-5.5833,-5.5868,-5.5891,-5.5895,-5.5894,-5.59,-5.5901,-5.6106,-5.6108,0,0,-5.5683,-5.5695,-5.574,-5.5752,-5.5743,-5.5734,-5.5739,-5.5829,-5.5854,-5.5891,-5.5897,-5.5896,-5.5901,-5.5902,-5.6105,-5.6107,0,0,0,-5.5675,-5.5693,-5.5704,-5.5748,-5.5762,-5.5737,-5.5742,-5.585,-5.5853,-5.5898,-5.5897,-5.5901,-5.5903,-5.6104,-5.6106,-5.6184,0,0,0,-5.5672,-5.5688,-5.5703,-5.5711,-5.576,-5.5807,-5.5761,-5.5847,-5.5856,-5.5897,-5.5902,-5.5904,-5.6102,-5.6105,-5.6179,-5.6219,0,0,0,-5.5669,-5.5687,-5.5702,-5.5712,-5.5747,-5.5805,-5.5813,-5.5848,-5.5856,-5.59,-5.5905,-5.6101,-5.6104,-5.6174,-5.6211,-5.6278,0,0,0,-5.5668,-5.5769,-5.5704,-5.5815,-5.5747,-5.5854,-5.5813,-5.5891,-5.5937,-5.5902,-5.6102,-5.6105,-5.6173,-5.6206,-5.6273,-5.6338,-5.6365,0,0,-5.5802,-5.5785,-5.585,-5.5794,-5.5917,-5.584,-5.5973,-5.6002,-5.5993,-5.6069,-5.6073,-5.618,-5.621,-5.6277,-5.6516,-5.6538,0,0,0,-5.5896,-5.5943,-5.5973,-5.6019,-5.6046,-5.6072,-5.608,-5.609,-5.6155,-5.6035,-5.6222,-5.6239,-5.6277,-5.6308,-5.6327,-5.6359,-5.612,-5.6119,-5.6119,-5.6103,-5.6089,-5.6195,-5.6191,-5.6237,-5.6245,-5.628,-5.6296,-5.6266,-5.631,-5.6333,-5.648,-5.6516,-5.653,-5.6564,-5.6365,-5.6365,-5.6365,-5.6365,-5.6298,-5.6363,-5.6323,-5.6413,-5.6397,-5.647,-5.6482,-5.6459,-5.6524,-5.6461,-5.6494,-5.6427,-5.6555,-5.6584,-5.6371,-5.637,-5.6369,-5.6369,-5.6368,-5.6433,-5.6462,-5.6475,-5.6543,-5.6595,-5.6586,-5.6653,-5.6634,-5.6617,-5.665,-5.6672,-5.6671,-5.6668,-5.6662,-5.6662,-5.6663,-5.6663,-5.6664,-5.6664,-5.6568,-5.6581,-5.664,-5.6679,-5.6707,-5.6742,-5.6752,-5.6779,-5.6803,-5.6784,-5.6784,-5.6751,-5.657,-5.6526,-5.6672,-5.667,-5.6669,-5.6669,-5.6668,-5.6773,-5.6725,-5.6817,-5.6846,-5.6889,-5.6944,-5.692,-5.6976,-5.6995,-5.7029,-5.6988,-5.6857,-5.6838,-5.6823,-5.6786,-5.699,-5.699,-5.699,-5.699,-5.6888,-5.6877,-5.6968,-5.7016,-5.706,-5.7048,-5.7152,-5.7161,-5.7162,-5.7172,-5.714,-5.7089,-5.7074,-5.7064,-5.7043,-5.7009,-5.7266,-5.7266,-5.7266,-5.7014,-5.7007,-5.71,-5.7103,-5.7136,-5.7165,-5.7262,-5.7316,-5.7307,-5.7277,-5.7181,-5.7169,-5.7087,-5.7061,-5.7029,-5.6998,-5.6934,0,0]}]]